www.pogodaiklimat.ru

Погода и климат >> Архив погоды >> Россия >> Приморский край >> Кавалерово


ПОГОДА в Кавалерово

  • Прогноз погоды в Кавалерово
  • Монитор погоды в Кавалерово

АРХИВ ПОГОДЫ в Кавалерово

Время (UTC), дата Ветер
(напр.,м/с)
 
Видим.   Явления Облачность Т
(С)
Тd
(С)
f
(%)
Тe
(С)
Тes
(С)
Комфортность P
(гПа)
Po
(гПа)
Тmin
(С)
Tmax
(С)
R
(мм)
R24
(мм)
S
(см)
12 16.09 З 2 50 км ясно +11.8 +9.2 84 +11 +11 1015.3 990.7
15 16.09 СЗ 3 50 км ясно +8.8 +6.1 83 +6 +6 1015.6 990.7
18 16.09 штиль 0 50 км ясно +4.3 +2.3 87 +3 +3 1017.3 992.0
21 16.09 СЗ 3 50 км ясно +3.3 +1.2 86 -1 -1 1017.5 992.4 +2.9
00 17.09 В 1 50 км ясно +13.9 +2.2 45 +14 +21 1016.9 992.7
03 17.09 З 3 50 км ясно +18.7 +2.1 33 +19 +29 1016.1 992.0
06 17.09 З 3 50 км ясно +20.8 +1.1 27 +21 +26 комфорт 1014.6 990.7
09 17.09 СЗ 2 50 км ясно +13.4 +8.1 70 +13 +13 1013.0 988.9 +21.0
12 17.09 СЗ 1 50 км ясно +4.8 +4.4 97 +3 +3 1016.0 990.7
15 17.09 З 1 50 км 10 баллов +3.4 +3.1 98 +2 +2 1014.7 989.3
18 17.09 СЗ 1 50 км 7 баллов +1.8 +1.5 98 -0 -0 1013.5 988.0
21 17.09 СЗ 1 50 км 8/5 600 м
[Sc Ci sp]
+1.9 +1.7 99 -0 -0 1010.3 985.3 +0.6
00 18.09 З 6-11
{11}
50 км в посл. час ливневой дождь 10/8 600 м
[Cu Sc Ci fib]
+9.9 +8.0 88 +6 +7 1010.2 985.8
03 18.09 З 7-14
{15}
50 км в посл. час ливневой дождь 8/8 600 м
[Cb cap]
+12.7 +3.8 55 +10 +11 1009.1 985.0
06 18.09 З 9-15
{17}
50 км {ливн. осадки} 5/5 600 м
[Cu med, cong]
+11.0 +0.4 48 +8 +8 1012.7 988.0
09 18.09 СЗ 2
{15}
50 км в посл. час ливневой дождь 3/3 600 м
[Sc]
+4.6 +3.3 91 +2 +2 1014.5 989.3 +13.7 4
12 18.09 СЗ 2
{12}
50 км в посл. час ливневой дождь 6/6 600 м
[Cb cap]
+3.3 +2.2 92 0 0 1014.9 989.8
15 18.09 З 5 50 км 9 баллов +4.9 +2.4 84 0 0 1016.0 990.7
18 18.09 З 3
{11}
10 км слаб. ливневой дождь 6/6 600 м
[Cb cap]
+4.2 +2.1 86 +1 +1 1012.5 987.6
21 18.09 СЗ 1 50 км {ливн. осадки} 3/1 600 м
[Sc Ac trans]
-0.5 -0.7 99 -3 -3 1012.4 987.0 -0.5 6
00 19.09 З 6-12
{12}
50 км {ливн. осадки} 4/4 1000 м
[Sc]
+11.0 +0.7 49 +8 +10 1009.3 985.1
03 19.09 З 13-21
{26}
50 км 3/3 1000 м
[Cu med, cong]
+13.5 -1.4 36 +10 +10 1006.8 982.8
06 19.09 З 13-21
{22}
50 км 3/3 1000 м
[Cu med, cong]
+14.4 -1.3 34 +12 +12 1008.3 984.0
09 19.09 З 4
{21}
50 км 3/3 1000 м
[Sc]
+12.1 -0.8 41 +10 +10 1011.2 986.7 +14.8
12 19.09 З 2
{13}
50 км ясно +9.1 +0.6 55 +8 +8 1012.9 988.4
15 19.09 З 4 50 км ясно +8.9 +0.8 57 +6 +6 1015.6 990.7
18 19.09 СЗ 3 50 км ясно +5.0 +1.7 79 +2 +2 1017.3 992.0
21 19.09 З 2 50 км 3/3 600 м
[Sc]
+4.3 +1.8 84 +2 +2 1018.0 992.9 +2.7
00 20.09 З 6 50 км ясно +12.2 +3.4 55 +10 +12 1018.2 993.8
03 20.09 З 6 50 км ясно +17.3 +3.2 39 +17 +21 1017.5 993.3
06 20.09 З 3 50 км ясно +19.3 +3.5 35 +20 +24 1017.4 993.3
09 20.09 СЗ 1 50 км ясно +12.6 +6.4 66 +13 +13 1020.7 996.0 +19.4
12 20.09 СЗ 1 50 км ясно +3.7 +3.1 96 +2 +2 1022.8 997.3
15 20.09 СЗ 1 50 км ясно +0.7 +0.6 99 -1 -1 1024.6 998.7
18 20.09 СЗ 1 50 км ясно -1.2 -1.5 98 -4 -4 1024.8 998.7
21 20.09 З 1 50 км 8/8 600 м
[Sc]
+2.5 +2.2 98 +1 +1 1022.8 997.5 -1.2
00 21.09 штиль 0 50 км в посл. час ливневой дождь 9/9 600 м
[Cb cap]
+6.5 +5.9 96 +5 +6 1022.2 997.3
03 21.09 ЮВ 2 50 км 4 балла +14.6 +9.6 72 +14 +21 1021.8 997.3
06 21.09 З 3
{10}
10 км слаб. ливневой дождь 8/8 1000 м
[Cb cap]
+13.3 +10.5 83 +12 +13 1019.1 994.9
09 21.09 С 1
{12}
50 км {ливн. осадки} 3/3 1000 м
[Sc]
+12.3 +8.4 77 +12 +12 1022.0 997.3 +17.8 3
12 21.09 В 1 50 км {ливн. осадки} ясно +6.6 +5.6 93 +5 +5 1022.7 997.8
15 21.09 С 1 50 км ясно +2.3 +2.2 99 0 0 1025.7 1000.0
18 21.09 СЗ 2 50 км ясно +4.5 +4.1 97 +2 +2 1025.5 1000.0
21 21.09 З 1 50 км 3/3 1000 м
[Sc]
+0.1 -0.0 99 -2 -2 1025.8 1000.2 -0.1
00 22.09 С 1 50 км ясно +12.4 +5.8 64 +13 +19 1024.7 1000.2
03 22.09 СЗ 4 50 км 4 балла +17.5 +3.0 38 +17 +22 1024.4 1000.0
06 22.09 СЗ 3 50 км 7 баллов +18.2 +3.6 38 +18 +20 1023.0 998.7
09 22.09 З 2 50 км 10/0
[Cc]
+12.6 +7.7 72 +12 +12 1023.4 998.7 +18.5
12 22.09 штиль 0 50 км 10/0
[Ci sp]
+6.7 +6.2 97 +6 +6 1022.8 997.9
15 22.09 штиль 0 50 км 10 баллов +6.1 +5.7 97 +5 +5 1022.6 997.3
18 22.09 С 1 50 км 10 баллов +4.8 +4.7 99 +3 +3 1021.4 996.0
21 22.09 штиль 0 50 км 10/0
[Ac trans Ci sp]
+5.0 +4.8 99 +4 +4 1019.0 994.0 +4.3
00 23.09 штиль 0 50 км 10/0
[Ac As]
+8.9 +6.9 87 +8 +10 1016.9 992.3
03 23.09 ЮВ 1 50 км 10 баллов +14.9 +6.2 56 +16 +16 1015.1 990.7
06 23.09 ЮВ 1 50 км 4 балла +17.9 +6.1 46 +19 +23 1012.0 988.0
09 23.09 З 1 50 км ясно +11.0 +8.9 87 +11 +11 1011.3 986.7 +18.5

 

Местоположение метеостанции Кавалерово (Приморский край, Россия): широта 44.25 долгота 135.00 высота над уровнем моря 206 м.

В архиве по умолчанию представлена погода в Кавалерово за последнюю неделю. Архивные данные за месяц целиком и за предыдущие месяцы, начиная с января 2011 года, Вы можете получить, выбрав интересующий диапазон дат из раскрывающегося списка и нажав кнопку "Ввод!".


*Определитесь, кто Вы:
робот инопланетянин человек

Внимание! Время в таблицах - всемирное. Для получения местного времени необходимо прибавить поправку, которая равна 10 ч.

Смотрите также архив погоды в соседних городах и на ближайших метеорологических станциях:

Погода в Богополе (Приморский край, Россия) (32 км)
Погода в Ольге (Приморский край, Россия) (61 км)
Погода в Рудной Пристани (Приморский край, Россия) (65 км)
Погода в Дальнегорске (Приморский край, Россия) (90 км)
Погода в Чугуевке (Приморский край, Россия) (96 км)
Погода в Лучегорске (Приморский край, Россия) (99 км)
Погода в Лазо (Приморский край, Россия) (135 км)
Погода в Мельничном (Приморский край, Россия) (139 км)
Погода в Малиново (Приморский край, Россия) (145 км)
Погода в Тернее (Приморский край, Россия) (152 км)

Пояснения к столбцам:

Ветер - указаны скорость ветра в м/с - средняя за 10 мин, порывы в срок и между сроками (в фигурных скобках) и направление, откуда дует ветер: С - северный, СВ - северо-восточный, В - восточный, ЮВ - юго-восточный, Ю - южный, ЮЗ - юго-западный, З - западный, СЗ - северо-западный.
Видимость - горизонтальная дальность видимости в метрах или километрах. При видимости от 1 до 10 км при отсутствии осадков обычно наблюдается дымка, при ухудшении видимости до 1 км и менее - туман. В сухую погоду видимость может ухудшаться дымом, пылью или мглою.
Явления - указаны атмосферные явления, наблюдавшиеся в срок или в последний час перед сроком; фигурными скобками обозначены явления, наблюдавшиеся между сроками (за 1-3 часа до срока); квадратными скобками обозначены град или гололедные отложения с указанием их диаметра в мм.
Облачность - указаны через наклонную черту общая и нижняя облачность в баллах и высота нижней границы облаков в метрах; квадратными скобками обозначены формы облаков: Ci - перистые, Cs - перисто-слоистые, Cc - перисто-кучевые, Ac - высококучевые, As - высокослоистые, Sc - слоисто-кучевые, Ns - слоисто-дождевые, Cu - кучевые, Cb - кучево-дождевые. Подробнее классификацию облаков см. в Атласе облаков (PDF).
T - Температура воздуха - температура, измеренная на высоте 2 м над землей.
Td - Температура точки росы - температура, при понижении до которой содержащийся в воздухе водяной пар достигнет насыщения.
f - Относительная влажность воздуха - влажноcть воздуха, измеренная на высоте 2 м над землей.
Te - Эффективная температура - температура, которую ощущает одетый по сезону человек в тени. Характеристика душности погоды. При расчете учитывается влияние влажности воздуха и скорости ветра на теплоощущения человека.
Tes - Эффективная температура на солнце - температура, которую ощущает человек, с поправкой на солнечный нагрев. Характеристика знойности погоды. Зависит от высоты солнца над горизонтом, облачности и скорости ветра. Ночью, в пасмурную погоду, а также при ветре 12 м/с и более поправка равна нулю.
P - Атмосферное давление - приведенное к уровню моря атмосферное давление.
Po - Атмосферное давление - измеренное на уровне метеостанции атмосферное давление.
Tmin - Минимальная температура - минимум температуры воздуха на высоте 2 м над землей.
Tmax - Максимальная температура - максимум температуры воздуха на высоте 2 м над землей.
R - Количество осадков - Количество выпавших осадков за период времени, мм. При наведении курсора мыши на число - период времени, за который выпало указанное количество осадков.
R24 - Количество осадков - Количество выпавших осадков за 24 часа, мм.
S - Снежный покров - Высота снежного покрова, см. При наведении курсора мыши на число - состояние снежного покрова и степень покрытия местности в баллах.